Wind_Speed
46 45 45 43 42 41 39 37 35 34 32 29 27 25 23 22 22 23 23 22 22 23 21 18 17 16 16 18 19 19 18 18 16 14 11 10 9 8 7 6 5 5 6 7 9 11 11 11 12 12 13 13 14 14 14 14 14 14 14 14 14 14 14
46 46 45 43 43 41 38 34 32 31 31 30 29 28 25 23 23 24 24 23 24 24 23 20 18 18 18 19 21 21 20 19 18 15 12 10 10 9 8 7 6 5 6 7 8 10 10 10 10 10 11 11 12 12 12 12 13 13 13 13 13 12 12
47 46 44 41 38 38 36 33 30 29 28 28 29 28 26 24 23 23 24 24 24 25 24 22 20 19 20 20 22 22 22 21 20 17 14 11 11 10 9 8 7 6 5 6 7 9 10 9 9 8 8 9 9 10 10 11 11 11 12 11 11 11 11
48 46 44 42 39 37 34 32 30 30 29 29 28 28 27 25 23 23 23 24 25 25 25 23 21 20 20 20 22 23 24 23 21 18 16 14 13 12 11 10 8 7 5 5 5 7 9 9 8 6 6 6 7 7 8 9 9 9 10 10 10 9 10
48 46 44 42 40 37 35 32 30 30 30 30 30 29 29 27 25 25 24 25 26 26 25 24 23 21 20 20 21 23 24 24 23 21 19 17 15 13 12 11 9 8 6 5 5 6 7 8 8 6 4 3 4 5 6 7 7 8 8 8 8 8 8
48 46 44 42 39 37 35 32 31 30 29 29 30 31 30 30 28 27 27 27 28 27 26 25 25 23 21 21 22 23 25 25 24 23 22 20 17 15 14 13 12 10 8 7 5 5 6 8 8 7 4 2 2 3 4 5 6 7 7 6 7 7 7
50 47 45 42 40 37 35 33 32 31 28 27 29 30 30 30 28 27 28 28 29 29 28 27 26 24 22 22 22 23 25 25 25 25 24 23 20 17 16 15 14 12 10 9 7 6 7 7 8 7 5 3 1 1 2 4 5 6 6 6 6 6 6
51 49 47 44 41 39 37 35 34 32 29 28 29 30 30 30 29 29 29 30 31 31 30 28 27 26 24 23 23 24 24 25 26 26 25 24 22 20 18 17 16 14 12 10 9 8 8 8 8 7 6 4 2 1 1 3 5 5 6 6 5 5 5
53 51 49 46 43 41 39 37 36 35 33 31 31 30 29 31 32 31 30 32 34 33 32 30 29 28 26 25 24 25 26 26 26 27 26 25 23 22 21 20 19 17 15 13 12 11 10 9 8 8 6 5 3 2 1 3 4 5 5 5 5 5 5
56 54 51 48 46 44 42 40 38 36 35 33 31 30 30 31 33 33 34 35 35 34 32 31 29 28 28 26 25 26 27 28 28 28 28 26 24 22 21 21 21 20 18 17 15 14 12 11 10 9 7 6 5 4 3 4 5 6 6 6 5 5 5
58 56 54 51 49 47 45 42 40 38 36 34 33 32 32 31 32 34 37 37 37 35 33 30 29 28 28 28 27 27 28 29 30 30 30 28 26 24 22 21 21 22 21 20 18 16 14 13 11 10 8 7 6 5 5 5 6 7 7 7 6 6 6
61 59 57 54 52 50 48 46 43 41 39 37 35 34 33 32 32 34 37 39 38 36 34 33 32 31 31 30 29 29 29 30 31 32 31 30 28 27 25 23 22 22 22 21 19 18 16 14 12 11 9 9 8 8 8 8 7 8 8 7 7 7 7
64 62 60 57 55 52 51 49 47 44 42 40 38 37 35 34 33 34 38 39 38 37 37 36 35 35 34 33 32 31 31 31 32 33 33 32 31 29 28 27 25 23 23 23 22 20 18 16 14 12 11 11 11 11 11 10 9 8 8 8 7 7 8
67 65 63 60 58 56 54 52 51 48 46 43 41 39 38 36 35 35 38 40 40 40 39 37 36 36 35 33 33 33 32 32 33 33 34 34 33 32 31 30 28 26 25 25 24 23 21 19 17 15 14 14 13 13 13 13 11 10 8 8 7 7 8
70 68 66 63 61 59 57 55 54 52 50 47 44 42 40 39 38 36 38 41 43 43 42 39 37 37 36 35 34 33 32 32 31 32 34 35 35 35 34 33 32 30 28 27 26 25 24 22 20 18 17 16 14 14 13 13 12 10 9 8 8 8 8
73 70 68 66 64 62 60 58 56 55 53 51 48 46 43 42 41 39 38 41 44 45 44 42 39 37 38 38 37 34 33 32 32 32 32 33 35 36 36 36 35 33 32 30 28 27 26 25 23 21 20 18 17 15 15 14 12 10 10 9 9 9 9
76 74 72 69 67 65 63 61 59 58 56 54 52 50 47 45 43 42 40 41 44 46 45 45 43 40 39 39 37 35 33 34 34 33 32 33 34 36 36 37 36 36 35 33 31 30 28 26 25 23 22 21 19 18 17 15 12 10 10 10 10 10 10
79 77 75 73 70 69 67 64 62 61 59 57 55 54 51 49 47 45 43 42 43 46 48 47 44 42 40 38 35 33 34 35 35 35 34 34 34 35 37 38 38 38 37 36 34 33 31 29 27 26 24 22 22 21 20 18 15 13 12 12 12 12 12
82 80 78 76 74 72 70 67 65 63 62 60 59 57 55 53 50 48 47 44 44 46 49 48 45 42 39 37 35 34 35 36 37 37 37 35 35 36 37 38 39 39 38 37 35 35 34 33 31 29 27 25 24 23 22 21 18 16 16 15 14 14 14
85 83 81 79 77 75 73 71 68 66 64 63 61 60 59 56 54 52 50 48 46 46 48 49 46 42 39 38 39 40 40 39 39 39 39 38 37 36 37 38 39 39 38 37 36 35 35 34 33 31 29 27 26 25 24 23 21 19 19 18 17 16 16
89 87 85 82 80 78 76 74 72 69 67 66 64 63 61 60 58 56 54 52 50 48 48 50 48 44 43 46 47 47 45 43 42 41 41 40 39 37 37 37 37 38 38 37 36 35 34 33 32 32 30 29 27 25 25 25 23 22 21 21 20 19 18
92 90 89 86 84 82 80 78 75 72 70 69 67 65 64 63 62 60 58 55 53 51 50 52 53 50 50 52 52 49 46 44 43 43 43 42 41 38 37 36 35 36 36 35 35 34 34 33 32 32 31 29 27 26 26 26 25 24 24 23 22 21 21
95 94 92 90 88 86 84 82 79 76 74 72 70 68 67 66 65 63 61 59 57 55 53 54 56 57 55 54 51 49 47 45 45 45 44 43 42 39 35 33 31 31 32 33 34 34 33 33 32 32 31 29 29 28 28 28 27 26 26 25 24 23 24
98 96 95 93 92 90 88 86 83 80 77 75 73 72 70 69 68 66 65 63 61 59 57 56 57 60 61 58 53 51 50 50 49 49 47 45 43 39 35 33 31 30 30 32 34 34 34 34 33 32 31 31 31 30 29 28 27 27 27 27 25 25 25
100 99 97 96 94 93 91 89 87 84 81 79 77 75 73 72 71 69 68 66 64 63 61 59 59 60 63 63 57 53 53 53 53 51 49 46 43 40 37 35 35 37 37 37 37 36 35 34 33 32 32 31 31 31 30 29 27 26 27 26 26 26 26
101 100 99 97 96 95 93 92 90 87 84 82 80 78 77 75 74 72 71 70 68 67 65 64 62 61 63 65 62 56 54 54 54 53 50 47 44 42 40 39 40 43 44 43 40 36 34 33 32 32 31 31 31 31 30 29 27 27 27 26 26 26 26
102 102 101 99 98 97 95 94 92 90 87 85 83 82 80 78 77 75 74 73 71 70 69 67 66 63 62 64 63 59 56 56 56 55 51 49 46 45 45 46 47 47 45 41 38 37 35 33 32 31 31 30 30 30 30 29 28 27 27 27 26 27 27
104 103 102 101 100 99 97 95 94 93 90 88 86 84 83 81 80 78 77 76 75 73 72 71 69 67 64 64 65 63 59 57 57 56 53 51 49 48 48 49 50 48 45 42 41 40 38 36 35 33 31 31 31 31 30 29 28 28 27 28 28 28 28
106 105 104 103 102 101 99 98 96 95 93 91 89 87 85 84 83 81 80 79 78 76 75 74 73 70 68 67 67 67 65 61 58 57 55 53 52 52 51 50 50 49 49 48 46 43 41 39 37 35 34 33 32 31 30 30 29 28 28 28 29 29 29
110 109 108 106 105 103 102 100 99 97 95 94 92 90 88 87 85 84 83 82 81 79 78 77 76 74 72 70 69 69 69 66 62 60 59 57 55 54 53 52 51 50 50 49 47 45 43 41 39 37 35 34 34 33 31 30 29 28 27 28 28 28 28
113 112 111 110 108 107 105 104 102 100 98 97 95 93 91 89 87 86 85 84 83 82 81 80 78 77 76 74 72 70 70 69 66 64 62 60 58 57 56 56 54 52 50 47 46 46 46 44 42 39 37 35 35 34 31 30 29 28 27 27 28 28 28
115 115 114 113 112 110 108 107 105 104 102 100 98 96 94 92 90 88 87 86 85 85 83 82 81 80 79 78 75 73 71 70 69 66 65 64 62 60 59 59 58 56 52 49 48 49 49 46 43 41 39 37 36 34 32 30 28 28 28 27 28 29 29
116 116 116 116 115 114 112 110 109 107 106 104 102 99 97 95 94 92 90 89 87 87 86 84 83 82 81 80 79 76 73 72 71 69 68 67 65 63 62 61 61 59 57 55 53 51 49 48 45 43 41 40 37 33 29 29 30 31 30 29 30 32 31
118 117 117 118 118 117 116 114 112 111 109 107 106 103 101 99 97 95 93 92 90 89 88 87 86 85 84 83 82 80 77 75 73 71 70 70 68 66 64 63 62 61 59 58 56 54 52 51 49 47 45 43 39 35 35 38 40 37 33 32 35 37 37
120 119 119 119 119 119 118 117 116 114 113 111 109 107 104 102 100 98 96 95 93 91 90 89 88 87 86 85 84 83 81 78 76 74 73 72 71 70 68 66 64 63 62 61 60 57 54 54 54 52 50 47 45 45 47 49 45 39 37 38 37 38 41
123 122 121 121 120 120 119 119 119 118 116 115 113 111 108 106 104 102 100 98 96 94 93 92 91 90 89 87 86 86 84 83 80 78 76 75 74 74 72 69 67 66 65 65 64 60 57 57 58 57 55 53 53 54 54 52 48 45 45 43 38 37 43
125 124 124 124 123 122 121 121 120 120 119 118 117 115 112 110 108 106 104 101 99 97 95 95 94 93 92 90 89 88 88 86 85 82 80 79 78 77 75 73 71 70 70 70 68 65 61 60 61 61 60 59 59 58 56 54 53 53 52 48 42 42 46
125 126 126 126 126 125 124 123 122 121 121 121 120 119 116 114 112 110 108 106 103 101 99 97 96 95 94 93 92 91 90 89 88 86 84 82 81 80 79 77 74 73 72 72 71 68 66 64 63 63 63 63 63 61 59 58 57 56 55 54 53 52 52
Wind_Direction
247 248 248 249 251 254 257 259 260 260 259 254 249 246 245 243 241 241 240 238 234 228 222 213 210 213 210 206 206 208 215 222 225 228 228 223 215 208 200 190 179 156 146 143 137 131 126 119 112 104 98 93 89 85 81 79 76 72 70 67 65 63 63
245 246 247 249 250 252 254 256 257 258 260 258 253 249 246 241 239 239 238 235 233 230 224 215 209 212 211 209 208 208 211 217 221 225 227 226 221 214 206 199 193 177 161 154 147 141 136 130 121 111 103 96 91 87 82 78 76 73 70 67 63 61 60
243 244 245 245 246 249 251 252 252 251 250 250 249 247 245 239 236 237 235 233 232 230 227 218 212 213 212 210 209 209 211 213 217 220 223 225 223 217 211 206 202 196 180 165 158 153 149 145 135 120 108 99 91 86 81 77 74 71 69 66 63 60 58
241 242 242 241 242 246 247 245 245 245 244 243 241 239 237 232 228 229 229 229 230 230 228 223 217 216 217 214 212 211 212 213 214 216 219 222 223 219 213 208 205 206 198 180 172 167 162 159 153 138 116 101 91 83 77 73 69 66 64 62 61 59 58
239 239 239 239 240 241 241 239 239 241 243 243 240 235 232 227 222 220 219 221 225 227 227 225 221 219 219 219 218 216 215 214 213 214 217 219 221 220 215 210 208 209 207 200 194 185 176 173 172 166 145 112 91 77 69 64 60 58 55 54 53 53 54
237 237 237 237 237 236 236 234 233 234 236 239 239 236 232 229 223 218 215 214 218 221 222 224 224 222 220 221 222 222 220 218 215 214 216 218 219 217 216 214 211 210 210 211 209 203 196 189 185 186 184 160 104 73 57 50 46 43 40 39 39 40 43
235 235 235 235 234 233 231 228 227 229 229 231 232 231 229 229 224 218 214 211 212 216 217 219 223 224 224 223 224 226 225 223 220 217 217 219 218 216 216 216 215 214 213 215 215 215 212 205 197 195 195 190 165 87 46 38 36 30 25 22 22 22 24
234 234 234 234 232 230 228 226 224 223 220 221 227 228 226 224 221 216 212 208 209 213 214 215 218 221 222 223 225 228 230 230 228 225 222 221 219 216 215 215 216 217 217 217 219 220 220 217 211 207 203 197 190 172 24 21 22 19 14 10 6 3 3
235 234 233 233 232 230 228 225 222 220 218 219 223 225 223 219 216 213 209 207 208 211 212 213 215 216 218 219 220 224 229 233 234 233 231 228 224 220 217 215 215 217 218 218 220 222 223 221 218 217 212 207 207 227 301 347 358 358 357 358 356 348 345
235 234 233 232 231 231 229 226 223 220 219 218 219 220 219 217 215 210 206 208 209 210 212 215 215 216 216 217 217 219 223 228 232 234 235 235 233 229 225 220 217 216 217 218 220 221 222 222 221 222 220 217 224 243 281 317 333 337 341 344 341 333 327
235 234 234 232 231 231 230 228 224 221 219 218 217 218 218 217 216 212 207 207 209 209 213 217 218 220 220 218 217 218 220 223 227 231 233 235 236 236 234 231 227 222 219 219 219 220 222 222 221 224 227 229 239 255 277 300 315 325 331 332 327 319 312
234 234 234 232 230 230 230 230 227 223 220 218 216 217 217 216 218 216 210 207 206 207 212 217 219 221 222 219 217 217 218 221 223 227 228 230 233 236 237 237 236 232 228 225 223 221 223 223 222 226 233 241 250 261 273 285 299 313 322 324 318 311 306
234 234 234 233 231 230 229 230 229 226 223 221 218 218 217 215 217 218 214 209 205 206 213 220 223 224 223 221 219 216 216 218 220 223 225 226 228 232 235 237 238 237 236 233 230 227 226 224 223 227 235 244 251 259 267 276 285 297 308 312 309 304 300
234 234 234 233 233 231 229 229 229 228 226 223 220 219 218 217 217 218 216 211 207 208 214 220 225 227 227 228 227 222 218 217 217 219 221 222 223 226 230 233 235 236 236 236 234 233 231 229 226 227 233 240 248 255 263 270 278 287 296 300 297 293 290
233 234 234 234 233 232 230 229 229 229 227 225 222 220 218 218 218 218 217 214 210 210 213 215 220 226 229 231 232 229 225 223 221 219 219 219 220 222 225 228 230 232 233 235 235 234 234 233 231 231 232 237 244 252 260 267 274 282 288 289 286 282 280
232 233 234 235 234 233 232 230 229 228 228 227 225 222 220 218 218 218 218 216 213 212 213 214 214 219 225 229 232 232 228 226 226 224 221 220 219 219 220 223 226 228 231 232 233 233 233 233 233 234 235 236 242 249 257 263 268 274 278 277 274 272 271
232 233 234 235 235 235 233 232 230 229 228 227 226 225 222 220 219 218 218 218 217 215 215 216 214 215 220 226 231 233 231 227 226 227 225 223 221 219 219 221 223 226 228 230 232 233 233 232 232 233 234 235 239 244 251 256 257 261 264 263 261 261 261
231 233 234 234 235 235 235 233 232 230 229 228 227 226 224 222 221 219 218 218 217 216 216 217 216 216 219 224 228 233 236 233 229 227 226 224 223 221 220 220 222 223 226 227 229 232 233 233 232 232 232 233 236 239 244 247 247 248 251 249 248 250 252
230 231 232 233 234 235 235 234 233 232 230 229 227 227 225 223 222 221 219 218 217 217 217 217 217 218 220 224 227 231 236 238 235 231 229 226 224 223 222 221 222 223 224 225 226 229 232 233 233 232 231 231 233 235 238 240 239 238 239 238 237 239 242
228 230 231 232 233 234 235 234 233 232 231 230 228 227 226 225 223 222 220 218 217 217 217 215 215 217 219 222 225 226 229 234 236 233 232 229 226 224 223 223 223 224 224 224 225 227 229 231 232 233 232 231 231 232 234 236 234 231 231 231 230 231 234
229 229 230 230 231 233 234 234 233 232 231 231 229 228 227 226 224 223 221 219 217 217 216 213 211 214 219 221 223 223 224 229 233 234 233 232 229 226 223 223 224 225 226 226 225 226 227 228 231 233 234 233 230 228 230 231 228 225 226 227 227 228 229
230 230 230 230 231 231 233 233 233 232 231 231 230 229 228 227 226 224 222 220 218 216 216 212 210 213 218 220 221 222 224 228 232 233 232 232 231 228 224 223 224 226 228 228 228 228 227 227 229 231 233 233 231 229 227 226 223 220 222 224 225 226 229
230 230 231 231 231 232 232 233 233 232 231 231 230 229 228 227 227 225 223 221 219 218 216 214 212 214 218 220 219 219 221 225 230 232 232 231 230 228 224 222 225 229 232 233 232 231 230 228 227 229 230 231 232 230 226 223 219 216 217 220 221 225 228
231 231 231 231 232 232 233 233 233 233 232 231 230 230 229 228 227 226 224 222 221 220 218 216 214 215 218 220 220 217 217 221 226 228 230 229 227 225 221 218 220 227 232 234 233 231 229 227 225 225 226 227 228 229 226 221 217 215 216 218 219 224 228
232 232 231 231 231 232 232 233 234 233 232 231 231 230 229 228 228 227 225 223 222 221 220 218 217 216 217 220 221 218 217 220 223 226 227 225 223 222 219 216 218 223 226 228 227 226 225 224 223 223 224 223 224 225 224 220 215 215 217 219 219 224 228
232 232 232 232 232 232 232 233 233 233 233 232 231 230 229 229 228 227 226 225 223 222 222 221 219 218 217 218 220 220 219 220 222 224 225 223 221 220 218 217 220 224 224 223 221 220 220 221 222 223 223 223 223 224 223 219 214 214 217 218 220 224 229
230 232 232 232 232 232 232 232 233 233 233 232 231 230 229 229 228 227 227 226 224 223 223 222 221 220 219 218 219 221 221 220 221 223 223 222 220 218 217 217 217 218 219 219 217 216 217 218 220 223 225 226 227 227 225 221 216 214 216 217 219 223 229
229 231 232 232 233 233 232 232 232 232 233 232 231 230 229 229 228 228 227 227 225 224 223 223 222 221 220 219 219 220 221 221 222 222 222 222 221 219 218 218 217 215 214 215 216 215 215 215 215 217 222 227 230 229 228 226 221 217 218 220 220 223 228
229 230 231 231 232 232 233 233 232 232 232 232 231 230 229 229 228 228 227 227 226 225 224 223 223 222 221 220 219 218 219 220 221 222 222 222 222 221 219 218 217 215 213 214 215 216 215 214 213 213 216 222 227 227 228 229 226 222 222 224 225 226 229
228 229 230 231 231 232 232 232 233 232 232 232 232 231 230 229 228 228 227 227 227 226 225 224 223 222 222 221 221 219 218 218 218 220 221 221 222 221 219 217 218 217 215 215 216 217 217 215 215 214 215 219 223 224 225 229 230 228 227 229 232 233 233
228 229 229 230 231 231 231 232 232 232 232 231 231 231 231 230 229 228 227 227 227 227 226 224 224 223 222 222 222 221 219 218 218 218 219 220 221 221 219 218 218 219 217 215 217 221 221 219 218 218 218 219 222 223 224 227 232 233 231 231 235 238 239
229 229 229 230 230 231 231 231 231 232 232 232 231 231 230 230 230 229 228 227 227 227 227 226 224 223 223 222 222 221 219 219 219 219 219 219 220 220 219 218 218 218 216 215 218 222 223 222 221 220 219 220 222 223 224 228 235 240 240 238 238 241 243
229 229 229 229 230 230 230 231 231 231 232 232 231 231 230 230 230 229 228 228 227 227 227 227 225 224 223 223 223 222 220 219 219 219 219 219 219 219 219 219 218 218 217 217 219 221 222 222 222 221 220 221 221 221 223 230 237 241 244 246 246 246 246
230 230 230 230 230 230 230 230 231 231 231 232 232 231 230 230 229 229 228 228 227 227 227 227 227 225 224 223 223 222 221 219 219 219 219 219 219 219 219 219 219 220 220 219 220 222 223 224 223 222 221 220 219 218 222 228 230 232 236 243 248 251 251
230 230 230 230 230 230 230 230 230 231 231 231 232 231 231 230 230 229 228 228 227 226 226 227 227 226 225 223 223 222 222 220 219 219 218 218 218 219 219 218 219 221 223 222 221 223 224 224 225 224 221 219 218 221 225 227 226 226 229 232 237 246 250
231 230 230 230 230 230 230 230 230 231 231 231 231 231 231 231 230 230 229 228 227 226 225 226 226 227 226 224 223 222 222 221 220 219 218 218 218 218 219 219 218 220 223 223 223 224 225 225 226 226 223 220 220 223 227 227 224 223 226 225 226 236 244
231 231 231 231 231 230 230 230 230 230 231 231 231 231 231 230 230 230 230 229 228 227 225 225 225 226 226 224 223 222 222 222 222 220 219 218 218 218 220 220 219 219 220 222 223 224 226 226 227 227 225 223 223 224 227 226 224 223 224 224 224 229 235
231 231 231 231 231 230 230 230 230 230 231 231 231 231 231 230 230 230 230 229 228 227 226 225 224 225 225 225 223 222 221 221 222 221 220 219 218 218 219 221 220 219 219 220 223 225 226 228 229 229 228 226 224 224 226 227 226 225 225 225 225 228 230
Height
10973 10976 10979 10982 10984 10985 10987 10989 10991 10992 10994 10995 10996 10997 10998 11000 11001 11002 11003 11005 11006 11007 11009 11010 11012 11012 11014 11015 11017 11019 11021 11023 11024 11026 11027 11028 11029 11030 11031 11033 11034 11034 11035 11035 11036 11036 11037 11037 11037 11036 11036 11035 11034 11034 11034 11033 11032 11032 11032 11031 11031 11031 11030
10968 10971 10974 10977 10980 10982 10984 10987 10988 10989 10991 10992 10993 10993 10995 10997 10998 10999 11001 11002 11004 11006 11007 11009 11010 11011 11012 11013 11015 11017 11019 11021 11023 11024 11026 11027 11028 11029 11031 11032 11033 11034 11035 11035 11036 11036 11037 11038 11037 11037 11036 11036 11035 11035 11034 11034 11033 11033 11032 11032 11032 11032 11031
10963 10966 10969 10972 10975 10978 10981 10983 10985 10987 10988 10989 10990 10991 10992 10994 10995 10997 10998 11000 11002 11004 11006 11007 11008 11009 11010 11011 11013 11015 11017 11019 11021 11023 11025 11026 11027 11029 11030 11031 11033 11034 11034 11035 11035 11036 11037 11038 11038 11038 11037 11037 11036 11036 11035 11035 11034 11034 11033 11033 11033 11033 11032
10958 10962 10965 10969 10972 10974 10977 10979 10981 10982 10984 10985 10986 10987 10988 10990 10992 10994 10996 10998 11000 11003 11005 11006 11007 11008 11009 11010 11011 11013 11015 11017 11019 11021 11023 11024 11026 11027 11029 11030 11032 11033 11034 11035 11035 11036 11037 11037 11038 11038 11038 11037 11037 11037 11036 11035 11035 11034 11034 11034 11033 11033 11033
10953 10957 10960 10964 10968 10970 10974 10976 10977 10979 10980 10982 10983 10984 10985 10986 10988 10989 10992 10994 10997 11000 11003 11005 11005 11006 11007 11008 11010 11011 11013 11015 11017 11019 11021 11022 11024 11026 11028 11029 11030 11031 11033 11034 11035 11036 11036 11037 11038 11038 11038 11038 11037 11037 11036 11036 11035 11035 11034 11034 11034 11033 11033
10947 10951 10955 10959 10963 10966 10970 10973 10974 10975 10977 10979 10980 10981 10982 10982 10984 10986 10988 10990 10993 10996 10999 11001 11003 11004 11006 11007 11008 11010 11011 11013 11015 11017 11018 11020 11022 11024 11026 11027 11029 11030 11031 11033 11034 11035 11036 11036 11037 11037 11037 11037 11037 11037 11036 11036 11035 11035 11034 11034 11034 11033 11033
10942 10946 10950 10954 10958 10961 10965 10968 10969 10971 10973 10976 10978 10979 10979 10980 10981 10983 10984 10987 10989 10992 10995 10997 11000 11002 11003 11005 11006 11008 11009 11011 11013 11015 11016 11018 11020 11022 11024 11025 11027 11028 11030 11031 11033 11034 11035 11036 11036 11036 11036 11037 11037 11036 11036 11036 11035 11035 11034 11034 11033 11033 11033
10937 10941 10944 10949 10953 10956 10959 10962 10964 10966 10969 10973 10975 10976 10978 10979 10978 10979 10981 10983 10985 10988 10990 10992 10995 10997 10999 11002 11004 11006 11008 11010 11012 11013 11014 11016 11018 11020 11021 11023 11025 11026 11028 11030 11031 11033 11034 11034 11035 11035 11035 11036 11036 11036 11036 11035 11035 11034 11034 11033 11033 11032 11032
10931 10935 10939 10944 10947 10950 10954 10957 10959 10961 10965 10968 10970 10972 10975 10975 10975 10976 10978 10979 10981 10983 10986 10988 10990 10992 10995 10997 10999 11002 11005 11008 11010 11011 11013 11014 11016 11017 11019 11021 11022 11024 11026 11028 11029 11031 11032 11033 11033 11034 11034 11034 11035 11035 11035 11035 11034 11034 11033 11033 11033 11032 11032
10925 10929 10934 10938 10942 10945 10948 10951 10954 10957 10960 10963 10965 10967 10969 10970 10971 10972 10973 10975 10978 10981 10984 10986 10988 10990 10991 10993 10995 10998 11001 11003 11006 11009 11011 11012 11014 11016 11017 11019 11020 11022 11024 11025 11027 11028 11030 11031 11032 11032 11033 11033 11033 11033 11033 11033 11033 11033 11033 11033 11032 11032 11031
10918 10923 10928 10932 10936 10940 10942 10946 10949 10952 10955 10958 10960 10962 10964 10966 10968 10968 10969 10971 10975 10979 10982 10984 10986 10988 10989 10990 10992 10994 10996 10998 11002 11004 11007 11009 11012 11014 11016 11017 11018 11020 11022 11023 11024 11026 11028 11029 11030 11031 11031 11032 11032 11032 11032 11032 11032 11032 11032 11032 11032 11031 11031
10912 10917 10921 10926 10930 10934 10937 10940 10943 10947 10950 10953 10955 10957 10959 10962 10964 10966 10966 10968 10971 10975 10979 10981 10983 10984 10986 10987 10988 10990 10992 10994 10997 11000 11002 11005 11008 11011 11013 11015 11016 11018 11020 11021 11022 11024 11025 11027 11028 11029 11030 11030 11031 11031 11031 11031 11031 11031 11031 11031 11031 11031 11030
10905 10910 10914 10919 10924 10928 10932 10935 10938 10941 10944 10947 10950 10953 10955 10958 10960 10962 10964 10965 10968 10972 10974 10977 10980 10981 10982 10983 10985 10986 10987 10990 10992 10995 10998 11001 11004 11007 11009 11011 11013 11015 11017 11019 11020 11022 11023 11024 11025 11027 11028 11028 11029 11029 11030 11029 11030 11030 11030 11030 11030 11030 11029
10899 10904 10908 10913 10917 10922 10926 10929 10932 10935 10939 10942 10945 10948 10951 10953 10955 10957 10960 10963 10965 10967 10970 10974 10977 10978 10980 10981 10983 10983 10984 10986 10988 10991 10993 10996 10999 11002 11005 11006 11009 11011 11013 11015 11017 11019 11020 11022 11023 11024 11025 11026 11027 11028 11028 11028 11028 11028 11028 11029 11028 11028 11028
10892 10897 10902 10907 10911 10915 10919 10923 10926 10929 10933 10937 10940 10943 10946 10949 10951 10953 10956 10959 10961 10963 10966 10969 10972 10975 10977 10978 10980 10982 10983 10985 10986 10987 10989 10992 10995 10997 11000 11002 11004 11006 11009 11011 11013 11015 11017 11019 11020 11022 11022 11023 11024 11025 11026 11026 11027 11027 11027 11027 11027 11027 11027
10886 10891 10895 10900 10904 10908 10913 10917 10920 10923 10927 10931 10934 10938 10941 10944 10947 10949 10952 10954 10957 10959 10961 10964 10967 10970 10972 10974 10976 10979 10982 10983 10984 10986 10987 10989 10991 10993 10995 10997 10999 11002 11004 11006 11009 11011 11013 11015 11017 11019 11020 11021 11022 11023 11024 11024 11025 11026 11026 11026 11026 11026 11026
10879 10884 10889 10893 10897 10901 10905 10910 10914 10917 10921 10925 10928 10932 10936 10939 10942 10944 10947 10949 10952 10955 10958 10960 10963 10965 10968 10971 10974 10977 10979 10980 10981 10983 10984 10986 10988 10990 10992 10993 10995 10997 11000 11002 11004 11007 11009 11011 11013 11015 11017 11018 11019 11020 11021 11021 11022 11023 11023 11024 11024 11024 11024
10871 10876 10881 10886 10890 10894 10898 10903 10907 10911 10915 10919 10923 10926 10930 10933 10936 10939 10942 10944 10947 10951 10953 10956 10959 10963 10965 10968 10972 10975 10976 10977 10979 10980 10981 10982 10984 10986 10988 10990 10992 10993 10995 10997 11000 11002 11005 11007 11008 11010 11013 11015 11016 11017 11017 11018 11019 11020 11020 11021 11021 11022 11022
10862 10867 10872 10877 10882 10886 10890 10895 10900 10904 10909 10913 10917 10920 10924 10927 10931 10934 10937 10940 10943 10946 10949 10953 10957 10960 10964 10968 10971 10973 10973 10974 10976 10977 10978 10979 10980 10982 10984 10986 10988 10989 10991 10993 10996 10998 11000 11002 11003 11005 11007 11010 11012 11013 11014 11014 11015 11016 11016 11017 11018 11019 11020
10853 10858 10863 10868 10873 10877 10882 10887 10892 10897 10901 10906 10910 10914 10917 10921 10925 10928 10931 10934 10937 10941 10944 10949 10955 10960 10964 10965 10966 10967 10967 10969 10971 10973 10975 10976 10977 10978 10981 10982 10984 10986 10988 10990 10993 10995 10996 10998 11000 11001 11003 11005 11007 11008 11010 11011 11012 11012 11013 11013 11015 11016 11017
10843 10849 10853 10859 10864 10868 10873 10878 10883 10888 10893 10898 10902 10907 10911 10915 10919 10922 10925 10928 10932 10935 10939 10944 10951 10956 10957 10956 10955 10957 10960 10963 10966 10969 10971 10973 10974 10975 10977 10979 10981 10983 10986 10988 10990 10992 10993 10995 10997 10999 11000 11001 11002 11004 11005 11006 11008 11009 11010 11010 11011 11013 11014
10834 10840 10845 10850 10855 10859 10864 10869 10875 10880 10885 10889 10894 10899 10903 10907 10911 10915 10919 10922 10926 10929 10933 10937 10942 10944 10943 10944 10947 10951 10955 10959 10962 10964 10966 10969 10971 10973 10974 10976 10979 10981 10984 10986 10988 10989 10990 10992 10994 10996 10997 10999 11000 11001 11002 11002 11003 11005 11006 11007 11009 11010 11010
10823 10829 10835 10841 10846 10851 10855 10860 10866 10871 10876 10881 10886 10891 10895 10899 10903 10908 10912 10916 10919 10923 10926 10930 10933 10934 10934 10936 10941 10946 10950 10954 10957 10959 10961 10965 10968 10970 10973 10976 10978 10981 10984 10985 10986 10987 10988 10989 10990 10992 10994 10996 10997 10998 10998 10999 11000 11001 11002 11004 11006 11007 11007
10811 10818 10825 10830 10836 10841 10846 10851 10856 10862 10867 10872 10877 10882 10887 10891 10895 10900 10904 10908 10912 10916 10919 10923 10926 10928 10929 10931 10935 10940 10943 10946 10949 10952 10956 10959 10964 10967 10969 10972 10974 10978 10982 10983 10983 10983 10983 10984 10986 10987 10989 10991 10992 10993 10994 10995 10997 10999 11000 11001 11003 11004 11004
10799 10806 10813 10820 10825 10831 10836 10841 10847 10852 10858 10863 10868 10873 10878 10882 10887 10891 10896 10900 10905 10908 10912 10916 10919 10922 10924 10927 10930 10934 10938 10941 10943 10946 10950 10954 10958 10962 10965 10967 10968 10969 10972 10975 10976 10977 10978 10980 10981 10983 10985 10986 10988 10990 10991 10992 10994 10996 10998 11000 11001 11002 11002
10788 10793 10801 10808 10814 10820 10826 10831 10837 10842 10848 10854 10858 10864 10869 10873 10878 10883 10887 10892 10896 10901 10905 10908 10912 10915 10919 10922 10926 10929 10933 10935 10938 10941 10945 10948 10952 10956 10959 10961 10961 10960 10962 10966 10970 10972 10974 10976 10978 10980 10981 10983 10985 10987 10988 10989 10991 10993 10995 10997 10999 11000 11000
10778 10782 10789 10796 10802 10809 10815 10821 10826 10832 10837 10843 10849 10854 10859 10864 10869 10874 10878 10882 10887 10892 10896 10901 10905 10909 10913 10917 10921 10925 10928 10930 10933 10936 10940 10943 10947 10949 10950 10950 10950 10952 10957 10962 10966 10968 10969 10972 10974 10976 10978 10980 10982 10984 10985 10986 10988 10990 10992 10994 10996 10997 10998
10768 10772 10778 10784 10790 10797 10803 10810 10816 10821 10826 10832 10838 10843 10849 10854 10859 10864 10869 10873 10878 10883 10888 10892 10897 10902 10907 10910 10914 10918 10922 10925 10928 10931 10935 10938 10941 10942 10944 10944 10945 10948 10952 10957 10960 10963 10964 10965 10968 10970 10973 10976 10979 10981 10983 10985 10986 10988 10990 10992 10993 10995 10996
10758 10762 10767 10772 10778 10784 10791 10798 10804 10810 10816 10821 10827 10832 10838 10844 10849 10855 10859 10864 10868 10873 10879 10883 10888 10894 10899 10901 10904 10908 10912 10917 10921 10925 10929 10932 10934 10936 10938 10940 10942 10944 10946 10949 10952 10956 10958 10960 10962 10964 10967 10970 10975 10978 10980 10982 10985 10987 10989 10990 10991 10993 10994
10745 10750 10755 10760 10766 10772 10779 10785 10791 10798 10804 10810 10815 10821 10827 10833 10839 10844 10849 10854 10859 10863 10869 10874 10879 10884 10889 10893 10896 10900 10903 10907 10911 10916 10920 10924 10927 10929 10932 10935 10938 10940 10942 10944 10948 10952 10954 10957 10959 10961 10963 10967 10971 10974 10977 10980 10982 10985 10987 10989 10990 10992 10992
10731 10737 10742 10748 10754 10760 10766 10772 10778 10784 10791 10797 10804 10810 10815 10822 10828 10834 10839 10844 10849 10854 10859 10865 10870 10875 10880 10884 10888 10892 10897 10900 10904 10907 10911 10915 10919 10922 10926 10929 10932 10934 10937 10942 10946 10949 10950 10952 10955 10957 10959 10963 10967 10971 10974 10977 10980 10982 10985 10987 10989 10990 10991
10717 10723 10729 10735 10741 10747 10753 10760 10765 10770 10776 10784 10791 10797 10804 10810 10816 10823 10829 10834 10839 10844 10849 10855 10861 10866 10871 10876 10880 10884 10889 10893 10897 10901 10904 10906 10910 10914 10918 10922 10925 10928 10933 10937 10940 10942 10944 10947 10950 10953 10956 10959 10964 10967 10970 10974 10978 10980 10982 10984 10987 10988 10989
10702 10708 10715 10720 10727 10733 10740 10747 10753 10758 10763 10770 10776 10784 10791 10798 10804 10811 10817 10822 10828 10834 10839 10845 10851 10856 10862 10867 10871 10875 10880 10884 10889 10893 10897 10899 10903 10907 10911 10915 10918 10922 10926 10930 10933 10935 10939 10942 10945 10949 10952 10955 10959 10965 10970 10973 10975 10975 10978 10983 10987 10988 10988
10687 10693 10699 10706 10712 10719 10726 10733 10739 10745 10751 10757 10763 10770 10778 10785 10791 10798 10804 10810 10816 10823 10829 10835 10840 10846 10852 10857 10861 10867 10872 10876 10880 10885 10888 10892 10896 10900 10904 10908 10912 10916 10919 10923 10926 10929 10933 10937 10940 10943 10946 10950 10954 10959 10963 10963 10963 10967 10974 10982 10987 10988 10988
10673 10679 10685 10692 10698 10705 10712 10719 10725 10731 10738 10743 10749 10757 10765 10772 10778 10785 10791 10797 10803 10811 10818 10824 10829 10835 10841 10847 10852 10857 10862 10866 10871 10876 10880 10884 10887 10891 10895 10900 10905 10909 10912 10915 10919 10922 10926 10930 10933 10936 10940 10943 10945 10946 10947 10949 10954 10961 10967 10973 10979 10985 10987
10657 10664 10670 10677 10683 10690 10697 10704 10711 10718 10724 10729 10735 10743 10752 10759 10765 10772 10779 10785 10791 10798 10805 10811 10817 10823 10829 10835 10842 10847 10852 10857 10862 10867 10871 10875 10878 10883 10887 10892 10897 10900 10903 10906 10910 10915 10919 10922 10925 10928 10933 10936 10936 10935 10936 10941 10947 10952 10954 10959 10969 10978 10981
10640 10647 10654 10660 10667 10675 10681 10689 10696 10704 10710 10715 10721 10729 10738 10746 10752 10758 10765 10771 10778 10785 10792 10798 10804 10810 10817 10823 10830 10836 10841 10846 10851 10857 10862 10865 10869 10874 10879 10884 10888 10891 10894 10897 10902 10907 10911 10914 10917 10921 10925 10929 10930 10930 10931 10934 10938 10941 10946 10953 10962 10968 10971
10623 10630 10636 10643 10650 10658 10665 10673 10681 10688 10695 10701 10707 10714 10722 10730 10738 10744 10750 10756 10764 10772 10778 10785 10792 10798 10804 10811 10817 10823 10829 10835 10840 10846 10851 10856 10860 10864 10869 10873 10878 10883 10887 10891 10896 10900 10904 10908 10910 10913 10917 10921 10923 10925 10926 10928 10930 10934 10940 10946 10951 10955 10959